Weather History for Chehalis, WA

Change the Weather History Date:

Sunday, March 3, 2013

  Actual Average (KOLM) Record (KOLM)
Temperature  
Mean Temperature 42 °F 43 °F  
Max Temperature 51 °F 52 °F 66 °F (1965)
Min Temperature 32 °F 34 °F 9 °F (1989)
Degree Days  
Heating Degree Days 24 22  
Month to date heating degree days 67  
Since 1 July heating degree days 3789  
Cooling Degree Days 0 0  
Month to date cooling degree days 0  
Year to date cooling degree days 0  
Moisture  
Dew Point 34 °F    
Average Humidity 82    
Maximum Humidity 100    
Minimum Humidity 50    
Precipitation  
Precipitation 0.00 in 0.19 in 2.18 in (1987)
Month to date precipitation 0.57  
Year to date precipitation 13.68  
Sea Level Pressure  
Sea Level Pressure 30.29 in    
Wind  
Wind Speed 5 mph (WSW)    
Max Wind Speed 9 mph    
Max Gust Speed 17 mph    
Visibility 8 miles    
Events      
T = Trace of Precipitation, MM = Missing Value Source: NWS Daily Summary

Daily Weather History Graph

Daily Weather History Graph

Search for Another Location

Airport:

Trip Planner

Search our weather history database for the weather conditions in past years. The results will help you decide how hot, cold, wet, or windy it might be!

Date:

Astronomy

Mar. 03, 2013 Rise Set
Actual Time 6:47 AM PST 6:01 PM PST
Civil Twilight 6:16 AM PST 6:31 PM PST
Nautical Twilight 5:41 AM PST 7:06 PM PST
Astronomical Twilight 5:06 AM PST 7:41 PM PST
Moon 12:09 AM PST (3/3) 9:42 AM PST (3/3)
Length of Visible Light 12h 14m
Length of Day
11h 14m
Waning Gibbous, 62% of the Moon is Illuminated
Mar 3
Waning Gibbous
Mar 4
Last Quarter
Mar 11
New
Mar 19
First Quarter
Mar 27
Full

Hourly Weather History & Observations

Time (PST) Temp. Windchill Dew Point Humidity Pressure Visibility Wind Dir Wind Speed Gust Speed Precip Events Conditions
12:15 AM 37.4 °F 34.9 °F 35.6 °F 93% 30.28 in 6.0 mi WSW 3.5 mph - N/A   Mostly Cloudy
12:35 AM 37.4 °F 33.8 °F 35.6 °F 93% 30.27 in 9.0 mi WSW 4.6 mph - N/A   Partly Cloudy
1:15 AM 37.4 °F 32.1 °F 35.6 °F 93% 30.28 in 8.0 mi SW 6.9 mph - N/A   Clear
1:35 AM 37.4 °F 33.8 °F 35.6 °F 93% 30.29 in 7.0 mi SSW 4.6 mph - N/A   Partly Cloudy
1:55 AM 37.4 °F 33.8 °F 35.6 °F 93% 30.29 in 10.0 mi SSE 4.6 mph - N/A   Scattered Clouds
2:15 AM 37.4 °F 32.8 °F 35.6 °F 93% 30.29 in 10.0 mi South 5.8 mph - N/A   Mostly Cloudy
2:35 AM 37.4 °F 32.1 °F 35.6 °F 93% 30.29 in 10.0 mi South 6.9 mph - N/A   Mostly Cloudy
2:55 AM 35.6 °F 29.9 °F 33.8 °F 93% 30.29 in 10.0 mi South 6.9 mph - N/A   Mostly Cloudy
3:15 AM 35.6 °F 31.7 °F 33.8 °F 93% 30.29 in 10.0 mi South 4.6 mph - N/A   Overcast
3:35 AM 35.6 °F 29.2 °F 33.8 °F 93% 30.29 in 10.0 mi South 8.1 mph - N/A   Overcast
4:15 AM 33.8 °F 29.6 °F 32.0 °F 93% 30.29 in 10.0 mi SSW 4.6 mph - N/A   Overcast
4:35 AM 32.0 °F 27.5 °F 32.0 °F 100% 30.29 in 8.0 mi SW 4.6 mph - N/A   Overcast
4:55 AM 32.0 °F 27.5 °F 32.0 °F 100% 30.29 in 10.0 mi SW 4.6 mph - N/A   Mostly Cloudy
5:15 AM 32.0 °F 28.7 °F 32.0 °F 100% 30.29 in 10.0 mi SSW 3.5 mph - N/A   Mostly Cloudy
5:35 AM 32.0 °F 26.4 °F 32.0 °F 100% 30.29 in 10.0 mi SSW 5.8 mph - N/A   Mostly Cloudy
6:15 AM 32.0 °F 27.5 °F 32.0 °F 100% 30.29 in 10.0 mi SSW 4.6 mph - N/A   Clear
6:35 AM 32.0 °F 27.5 °F 32.0 °F 100% 30.30 in 10.0 mi SSW 4.6 mph - N/A   Mostly Cloudy
6:55 AM 32.0 °F 28.7 °F 32.0 °F 100% 30.30 in 10.0 mi SW 3.5 mph - N/A   Scattered Clouds
7:15 AM 32.0 °F 27.5 °F 32.0 °F 100% 30.31 in 10.0 mi SSW 4.6 mph - N/A   Mostly Cloudy
7:35 AM 32.0 °F 26.4 °F 32.0 °F 100% 30.31 in 10.0 mi SSW 5.8 mph - N/A   Mostly Cloudy
7:55 AM 32.0 °F 26.4 °F 32.0 °F 100% 30.31 in 10.0 mi WSW 5.8 mph - N/A   Partly Cloudy
8:15 AM 33.8 °F 28.6 °F 32.0 °F 93% 30.31 in 10.0 mi South 5.8 mph - N/A   Clear
8:35 AM 37.4 °F 34.9 °F 35.6 °F 93% 30.31 in 10.0 mi SW 3.5 mph - N/A   Clear
8:55 AM 39.2 °F 37.0 °F 35.6 °F 87% 30.30 in 10.0 mi South 3.5 mph - N/A   Clear
9:15 AM 41.0 °F 37.1 °F 35.6 °F 81% 30.30 in 10.0 mi South 5.8 mph - N/A   Clear
9:35 AM 42.8 °F 41.1 °F 37.4 °F 81% 30.30 in 5.0 mi South 3.5 mph - N/A   Haze
9:55 AM 44.6 °F - 37.4 °F 76% 30.30 in 7.0 mi Calm Calm - N/A   Mostly Cloudy
10:15 AM 44.6 °F 40.2 °F 35.6 °F 71% 30.30 in 7.0 mi NW 8.1 mph - N/A   Mostly Cloudy
10:35 AM 44.6 °F 40.2 °F 33.8 °F 66% 30.30 in 5.0 mi NNW 8.1 mph 16.1 mph N/A   Haze
10:55 AM 46.4 °F 42.4 °F 35.6 °F 66% 30.30 in 5.0 mi WNW 8.1 mph - N/A   Haze
11:15 AM 48.2 °F - 35.6 °F 62% 30.30 in 5.0 mi NNW 5.8 mph - N/A   Haze
11:35 AM 46.4 °F 43.5 °F 35.6 °F 66% 30.30 in 6.0 mi WNW 5.8 mph - N/A   Haze
12:15 PM 46.4 °F 44.3 °F 33.8 °F 62% 30.30 in 5.0 mi WNW 4.6 mph - N/A   Haze
12:35 PM 48.2 °F - 32.0 °F 54% 30.29 in 5.0 mi NW 9.2 mph 16.1 mph N/A   Haze
12:55 PM 48.2 °F - 32.0 °F 54% 30.29 in 5.0 mi WNW 6.9 mph - N/A   Haze
1:15 PM 50.0 °F - 33.8 °F 54% 30.28 in 5.0 mi WNW 9.2 mph - N/A   Haze
1:35 PM 51.8 °F - 33.8 °F 50% 30.28 in 5.0 mi NW 6.9 mph 17.3 mph N/A   Haze
1:55 PM 50.0 °F - 32.0 °F 50% 30.28 in 8.0 mi NW 5.8 mph - N/A   Mostly Cloudy
2:15 PM 50.0 °F - 32.0 °F 50% 30.28 in 5.0 mi West 5.8 mph - N/A   Haze
2:35 PM 50.0 °F - 35.6 °F 58% 30.28 in 5.0 mi North 6.9 mph - N/A   Haze
2:55 PM 48.2 °F - 35.6 °F 62% 30.28 in 10.0 mi WNW 9.2 mph - N/A   Mostly Cloudy
3:15 PM 50.0 °F - 35.6 °F 58% 30.28 in 10.0 mi WNW 5.8 mph - N/A   Scattered Clouds
3:35 PM 50.0 °F - 35.6 °F 58% 30.28 in 9.0 mi NW 4.6 mph - N/A   Partly Cloudy
3:55 PM 50.0 °F - 33.8 °F 54% 30.28 in 10.0 mi WNW 4.6 mph - N/A   Scattered Clouds
4:15 PM 50.0 °F - 33.8 °F 54% 30.27 in 10.0 mi WNW 8.1 mph - N/A   Mostly Cloudy
4:35 PM 50.0 °F - 33.8 °F 54% 30.27 in 9.0 mi West 5.8 mph - N/A   Mostly Cloudy
4:55 PM 48.2 °F - 35.6 °F 62% 30.27 in 10.0 mi NW 6.9 mph - N/A   Scattered Clouds
5:35 PM 46.4 °F 42.9 °F 35.6 °F 66% 30.28 in 10.0 mi WNW 6.9 mph - N/A   Clear
6:15 PM 44.6 °F - 35.6 °F 71% 30.28 in 5.0 mi Calm Calm - N/A   Haze
6:35 PM 41.0 °F - 35.6 °F 81% 30.29 in 7.0 mi Calm Calm - N/A   Clear
6:55 PM 41.0 °F - 35.6 °F 81% 30.29 in 10.0 mi Calm Calm - N/A   Clear
7:15 PM 39.2 °F - 35.6 °F 87% 30.30 in 7.0 mi Calm Calm - N/A   Clear
7:35 PM 39.2 °F - 35.6 °F 87% 30.30 in 9.0 mi Calm Calm - N/A   Clear
7:55 PM 37.4 °F - 35.6 °F 93% 30.30 in 7.0 mi Calm Calm - N/A   Scattered Clouds
8:15 PM 35.6 °F - 35.6 °F 100% 30.30 in 7.0 mi Calm Calm - N/A   Scattered Clouds
8:35 PM 37.4 °F 34.9 °F 35.6 °F 93% 30.30 in 8.0 mi West 3.5 mph - N/A   Partly Cloudy
8:55 PM 35.6 °F - 33.8 °F 93% 30.30 in 6.0 mi Calm Calm - N/A   Clear
9:15 PM 35.6 °F - 32.0 °F 87% 30.30 in 7.0 mi Calm Calm - N/A   Clear
9:35 PM 33.8 °F - 32.0 °F 93% 30.30 in 6.0 mi Calm Calm - N/A   Clear
9:55 PM 33.8 °F - 32.0 °F 93% 30.31 in 9.0 mi Calm Calm - N/A   Clear
10:15 PM 32.0 °F - 32.0 °F 100% 30.31 in 10.0 mi Calm Calm - N/A   Clear
10:35 PM 33.8 °F - 32.0 °F 93% 30.31 in 7.0 mi Calm Calm - N/A   Clear
10:55 PM 32.0 °F - 32.0 °F 100% 30.31 in 2.0 mi Calm Calm - N/A   Clear
11:15 PM 32.0 °F - 32.0 °F 100% 30.31 in 10.0 mi Calm Calm - N/A   Clear
11:35 PM 32.0 °F - 32.0 °F 100% 30.31 in 9.0 mi Calm Calm - N/A   Clear
11:55 PM 32.0 °F 28.7 °F 32.0 °F 100% 30.31 in 1.2 mi NNE 3.5 mph - N/A   Scattered Clouds